Home > Weather > Burbank > Past weeks

Flag for USA Past Weather in Burbank, California, USA — Yesterday and Last 2 Weeks

Now
66 °F

Overcast.


Feels Like: 66 °F
Forecast: 62 / 80 °F
Wind: 5 mph from Southeast

Location: Bob Hope Airport

Current Time: Aug 26, 2016 at 5:11:11 AM

Latest Report: Aug 26, 2016 at 3:53 AM


Visibility: 9 mi

Pressure: 29.88 "Hg

Humidity: 78%

Dew Point: 59 °F

Location of BurbankLocation

Past Weather in Burbank — Graph

°F

Burbank Temperature Yesterday

Maximum temperature yesterday: 80 °F (at 12:53 PM)
Minimum temperature yesterday: 64 °F (at 11:53 PM)
Average temperature yesterday: 70 °F

High & Low Weather Summary for the Past Weeks

 TemperatureHumidityPressure
High100 °F (Aug 15, 2:53 PM)87% (Aug 12, 2:53 AM)30.01 "Hg (Aug 12, 2:53 AM)
Low62 °F (Aug 17, 5:53 AM)8% (Aug 17, 1:53 PM)29.75 "Hg (Aug 16, 5:53 PM)
Average76 °F54%29.87 "Hg
* Reported Aug 11 3:53 AM — Aug 26 3:53 AM, Burbank, Weather by CustomWeather, © 2016

Note: Actual official high and low records may vary slightly from our data, if they occured in-between our weather recording intervals... More about our weather records

Advertising

Burbank Weather History for the Previous 24 Hours

Scroll right to see more
 ConditionsComfort  
Time TempWeatherWind HumidityBarometerVisibility
3:53 AM
Fri, Aug 26
66 °FOvercast.5 mph78%29.88 "Hg9 mi
2:53 AM66 °FOvercast.7 mph78%29.88 "Hg8 mi
1:53 AM65 °FOvercast.6 mph81%29.88 "Hg8 mi
12:53 AM65 °FOvercast.7 mph81%29.88 "Hg8 mi
11:53 PM
Thu, Aug 25
64 °FOvercast.6 mph84%29.89 "Hg9 mi
10:53 PM65 °FPassing clouds.6 mph85%29.89 "Hg10 mi
9:53 PM67 °FClear.9 mph79%29.88 "Hg10 mi
8:53 PM67 °FClear.8 mph79%29.87 "Hg10 mi
7:53 PM70 °FSunny.7 mph71%29.85 "Hg10 mi
6:53 PM73 °FSunny.10 mph64%29.84 "Hg10 mi
5:53 PM76 °FSunny.9 mph58%29.84 "Hg10 mi
4:53 PM77 °FSunny.7 mph54%29.84 "Hg9 mi
3:53 PM78 °FSunny.10 mph52%29.85 "Hg10 mi
2:53 PM78 °FSunny.12 mph52%29.85 "Hg10 mi
1:53 PM79 °FSunny.13 mph52%29.86 "Hg10 mi
12:53 PM80 °FSunny.10 mph47%29.88 "Hg10 mi
11:53 AM79 °FSunny.7 mph50%29.90 "Hg10 mi
10:53 AM74 °FSunny.5 mph57%29.92 "Hg10 mi
9:53 AM70 °FSunny.6 mph66%29.93 "Hg10 mi
8:53 AM68 °FSunny.7 mph70%29.93 "Hg10 mi
7:53 AM66 °FSunny.6 mph73%29.93 "Hg10 mi
6:53 AM65 °FClear.5 mph73%29.92 "Hg10 mi
5:53 AM65 °FClear.3 mph68%29.91 "Hg10 mi
Weather by CustomWeather, © 2016

See weather overviewHow to use our weather pages